Location: Abraham Lincoln Continuation High School
(33.9711°N, 117.3662°W)
Time: 07:51:27
(UTC+00:00)

Iridium 4 Rocket - Pass Details

Date: 22 January 2021
Orbit: 583 x 906 km, 86.9° (Epoch: 24 February)

Event Time Altitude Azimuth Distance (km) Brightness Sun altitude
Rises 03:58:29 0° 341° (NNW) 3,419 7.1 -34.8°
Reaches altitude 10° 04:01:34 10° 325° (NW) 2,428 6.4 -35.4°
Maximum altitude 04:05:22 20° 281° (W) 1,769 5.9 -36.2°
Drops below altitude 10° 04:08:59 10° 235° (SW) 2,271 6.5 -37.0°
Sets 04:11:46 0° 219° (SW) 3,127 7.1 -37.6°
